CAPE
596 444 438 537 392 196 134 152 326 405 387 541 250 1 5 11 78 172 240 210 188 136 117 233 158 74 95 2 0 3 2 0
391 279 182 198 155 92 86 115 183 355 201 76 62 0 5 23 63 185 216 295 275 246 243 258 221 77 13 32 0 0 0 0
68 97 79 81 98 40 48 47 33 56 54 25 2 0 0 9 14 6 19 49 59 64 100 141 51 52 0 0 0 0 0 0
6 35 73 108 108 52 16 52 61 48 19 13 10 16 29 4 5 6 22 28 17 30 29 42 2 0 0 0 0 0 0 0
6 8 4 2 0 2 2 1 0 3 0 3 6 8 26 0 0 0 18 1 14 22 31 0 0 0 0 0 0 0 0 0
3 2 0 0 0 0 0 3 10 9 2 1 6 4 9 7 9 0 0 0 0 1 1 0 1 1 1 0 2 0 0 0
0 0 0 0 3 2 0 0 0 0 0 1 6 15 12 28 17 6 0 0 0 0 0 0 0 0 0 0 0 0 0 0
0 0 3 4 6 8 14 14 3 1 0 0 0 0 1 26 53 52 43 25 19 48 22 37 26 19 5 3 5 0 0 0
4 0 7 10 5 7 30 28 19 0 0 0 0 0 2 10 26 6 30 19 21 25 18 16 49 42 57 53 12 9 5 0
6 19 11 0 0 13 39 30 19 8 0 0 2 1 3 16 21 34 13 9 27 16 32 23 19 15 26 48 49 29 13 19
4 2 11 20 24 35 35 25 25 12 5 5 10 4 7 3 4 6 4 14 28 30 37 47 30 37 22 62 114 74 24 28
3 14 12 26 33 27 29 30 16 8 15 14 19 16 13 9 29 35 22 34 34 38 44 56 43 49 25 68 88 129 85 29
6 2 17 20 16 11 14 15 13 11 6 19 11 9 17 30 27 15 29 24 48 67 81 60 66 68 54 90 100 180 107 94
0 0 4 3 2 0 4 12 10 13 35 22 21 13 12 17 16 16 25 40 44 39 90 81 82 117 96 97 126 170 170 186
0 22 6 4 1 0 0 1 2 8 11 28 17 16 19 18 18 21 8 19 35 85 63 93 67 80 85 100 103 123 120 119
14 30 17 2 0 0 2 1 6 9 36 34 21 24 14 15 17 16 8 9 31 48 64 76 77 98 102 104 59 102 109 131
31 39 2 0 1 2 1 1 6 26 21 19 20 15 19 15 11 7 24 24 18 25 78 81 82 85 66 46 20 23 72 138
8 3 0 14 6 1 2 9 32 10 21 14 14 18 5 8 15 16 16 11 23 52 53 48 66 64 49 20 2 0 1 6
5 20 22 1 1 19 23 21 13 13 18 10 15 11 5 10 10 14 16 13 21 11 16 0 1 11 22 17 0 1 0 2
7 14 0 0 0 6 6 13 2 9 14 25 17 0 1 18 18 14 9 3 14 19 17 19 13 0 16 14 17 16 14 7
CIN
-86 -78 -59 -34 -42 -70 -77 -58 -3 -6 -12 0 -11 -64 -66 -107 -16 -7 -3 -1 -2 -2 -3 -31 -47 -73 -22 -42 -2 -20 -3 0
-147 -147 -123 -120 -113 -123 -88 -65 -27 -1 -8 -25 -23 0 -4 -21 -8 -3 -11 -2 -1 -4 -2 -7 -9 -16 -31 -22 0 0 0 0
-290 -222 -196 -154 -117 -148 -125 -104 -93 -50 -49 -67 -13 0 0 -37 -55 -22 -65 -52 -70 -77 -50 -37 -68 -36 0 0 0 0 0 0
-190 -226 -175 -115 -93 -110 -2 -98 -99 -99 -119 -87 -23 -12 -2 -41 -45 -56 -46 -51 -90 -80 -74 -56 -53 0 0 0 0 0 0 0
0 0 0 0 0 -14 0 0 0 -7 -10 -1 -4 0 -1 0 0 0 -4 -20 -37 -32 -54 -5 0 0 0 0 0 0 0 0
0 0 0 0 0 0 0 -1 -1 0 0 -1 0 0 -1 0 0 0 0 0 0 0 0 0 0 0 0 -9 0 0 0 0
0 0 0 0 -1 -1 -1 0 0 0 0 -1 -2 -4 -1 0 -1 -1 0 0 0 0 0 0 0 0 0 0 0 0 0 0
0 0 -1 -1 -1 -1 -1 -1 -1 -1 0 0 0 0 -1 -1 -1 -2 -2 -1 -1 -1 -2 -10 -4 -1 0 0 -1 0 0 0
-1 0 -7 -3 -2 -3 -1 -1 -1 0 0 0 0 0 -2 -2 -1 -14 -1 -3 -1 0 -2 -3 -4 -7 0 0 0 0 -2 0
-2 -1 -1 -1 0 -1 -1 -1 -2 -2 0 0 -2 -1 -1 -2 -2 -1 -8 -7 -7 -8 -5 -8 -5 -5 -1 -2 -1 -3 -4 -1
-1 -1 -1 -2 -2 -2 -2 -1 -1 -1 -2 -2 -2 -2 -3 -9 -6 -18 -27 -6 -4 -3 -2 -1 -1 -1 -6 -1 0 -1 -2 -3
-5 -3 -2 -3 -2 -2 -4 -1 -1 -1 -1 -2 -1 -3 -4 -7 -2 -3 -6 -2 -4 -8 -7 -1 -1 -1 -4 -2 -1 0 -1 -2
-1 -14 -14 -9 -2 -2 -3 -1 -1 -1 -12 -2 -9 -8 -5 0 -1 -5 -3 -5 -3 0 0 -1 -1 -1 -4 -1 0 0 -1 -1
0 0 -25 -6 -4 0 -2 -3 -8 -1 -2 -6 -3 -3 -2 -3 -3 -2 -5 -1 -2 -2 0 0 -1 -1 0 0 0 0 0 -1
0 -3 -27 -15 -16 -8 -1 -4 -12 -10 -15 -3 -3 -4 -1 -2 -2 -4 -5 -4 -2 0 -1 0 -2 0 -1 0 0 0 -1 -1
-1 -1 -5 -4 0 0 -8 -9 -23 -14 -2 -2 -2 0 -1 -1 -1 -1 -3 -12 -1 0 -1 0 0 0 -1 -1 -4 -1 -1 -2
-1 -1 -3 0 -1 -6 -21 -37 -11 -1 -7 0 -1 -1 0 -1 -1 -1 -1 -1 -1 -2 0 0 -4 -1 -2 -1 -6 -23 -1 0
-4 -1 0 -6 -8 -6 -29 -13 -3 -16 -1 -2 -2 -1 -2 -6 -5 -1 -4 -2 -1 -2 -1 0 0 -1 -1 -1 0 0 0 -5
-1 -2 -6 -27 -38 -6 -2 -2 -3 -3 -3 -3 -2 -3 -2 -4 -5 -1 -3 0 0 -2 0 0 0 0 -1 -4 0 -21 -16 -15
-2 -3 0 0 -1 -4 -3 -6 -11 -3 -1 -3 -1 0 0 -1 -7 -2 -1 -1 -1 0 -1 -2 -3 -3 0 -1 -1 0 -2 -7
Wind_Speed
19 20 21 22 23 23 25 24 22 20 20 15 13 14 16 21 25 24 20 21 18 16 18 16 17 16 19 18 20 24 29 32
18 20 21 22 23 24 25 24 23 22 19 17 17 20 17 20 19 21 26 27 21 23 26 23 19 17 27 25 26 28 32 35
19 20 21 21 23 24 24 25 24 22 22 22 20 20 20 21 21 24 25 27 27 26 26 26 27 26 27 28 31 33 34 34
20 20 21 23 22 23 24 24 23 23 23 22 21 20 20 22 23 25 27 28 29 28 28 28 29 30 31 32 32 34 34 34
20 21 22 22 23 23 24 24 24 25 25 24 23 23 24 25 26 27 28 28 29 30 30 31 32 32 33 33 35 33 32 30
20 21 20 21 22 23 23 23 25 25 26 24 23 24 25 26 27 28 29 29 29 30 30 31 31 27 26 28 27 31 28 31
19 19 20 21 22 23 25 26 28 28 27 27 26 24 27 27 25 27 27 28 27 28 29 29 27 28 28 28 27 25 30 29
17 17 19 20 22 23 24 27 30 29 29 31 30 29 30 27 25 27 30 30 30 29 30 29 28 29 27 27 28 26 27 29
16 17 17 19 22 25 27 29 30 32 33 32 32 32 30 29 26 29 30 28 32 31 32 31 27 28 27 26 24 24 25 22
16 18 20 22 23 25 28 30 31 32 34 32 31 32 30 28 25 32 27 32 33 34 33 33 31 33 31 27 24 23 21 22
17 20 19 21 24 26 28 30 32 32 34 34 34 33 31 32 34 32 34 34 33 31 32 31 32 31 30 28 25 19 20 20
22 19 23 24 26 28 29 31 32 33 35 36 35 34 35 34 31 31 34 30 29 32 30 31 31 30 30 28 24 19 19 22
22 28 30 25 26 27 30 32 34 35 37 37 34 35 34 32 32 33 32 30 28 26 27 28 28 27 28 26 24 20 20 20
24 25 24 26 29 32 34 34 36 38 36 34 34 34 33 33 31 31 31 31 29 26 26 27 26 24 23 23 22 20 20 18
22 22 27 30 32 33 35 35 37 37 37 35 34 33 33 31 32 31 32 31 30 29 27 25 24 23 22 22 22 21 20 18
22 28 29 32 34 34 32 35 37 36 35 35 33 32 32 31 31 32 31 30 28 27 25 23 22 22 21 22 21 22 21 19
29 28 30 32 30 33 31 33 35 36 34 33 31 33 34 34 33 31 28 28 28 27 23 22 21 20 20 21 21 21 19 17
27 29 30 25 33 31 32 32 34 34 33 33 33 34 34 33 31 29 27 27 24 23 21 21 20 19 19 19 21 19 16 16
29 28 33 34 33 33 33 33 32 31 31 33 32 32 34 31 31 28 26 23 21 21 20 20 20 19 19 19 18 16 14 14
30 34 34 34 34 33 33 33 31 29 31 31 31 33 17 27 29 19 15 12 11 12 18 18 18 16 15 15 14 14 13 14
Wind_Direction
26 25 19 21 20 14 4 356 352 13 5 11 7 347 333 299 295 306 314 315 317 314 314 315 317 319 318 320 323 319 322 321
18 17 8 16 14 9 9 360 355 357 18 24 11 349 350 323 321 313 309 306 312 312 307 320 326 327 317 319 323 321 317 316
17 15 12 14 11 9 12 6 359 354 350 358 360 351 342 337 326 321 317 314 313 314 313 314 315 317 315 314 314 316 316 313
7 11 13 11 10 7 5 3 3 354 4 1 357 352 346 336 326 319 314 311 310 311 310 309 311 310 309 310 311 314 313 313
4 7 8 7 1 360 357 356 357 356 354 352 347 344 339 330 323 318 317 314 310 310 309 307 307 307 308 309 307 310 312 313
2 4 11 10 8 4 3 1 358 356 353 353 349 343 336 331 326 322 317 316 315 313 315 311 311 312 314 312 315 311 312 310
11 11 11 12 8 2 358 354 352 349 351 346 344 341 335 333 330 327 324 322 320 318 315 313 314 310 311 312 312 313 311 311
12 12 11 10 5 359 358 350 349 347 346 339 339 336 333 334 333 330 326 323 321 320 318 316 316 311 312 310 307 310 309 312
14 13 12 10 1 350 347 349 351 347 344 341 340 337 338 334 336 330 326 327 324 321 318 318 318 310 311 311 313 312 312 315
14 10 2 1 355 347 347 349 350 349 347 345 342 337 337 337 339 333 335 327 322 320 321 317 318 313 312 313 312 311 313 320
18 4 7 3 355 352 351 350 348 349 347 343 340 336 335 334 328 329 327 326 323 322 318 317 315 314 313 316 315 310 311 316
10 10 0 356 350 349 351 350 349 348 347 341 340 337 335 333 334 332 329 329 329 323 323 319 317 315 314 317 317 315 314 316
5 354 345 349 349 2 354 346 345 344 341 340 341 337 335 335 334 332 334 333 332 330 330 326 325 322 318 317 317 316 317 318
358 355 354 355 354 352 346 345 345 344 344 346 342 338 338 336 335 335 335 335 335 336 334 331 331 331 330 328 327 321 319 319
1 358 350 354 350 348 346 348 345 347 345 344 343 343 342 340 339 338 335 335 334 333 334 335 336 335 335 333 330 326 318 318
3 358 354 351 350 347 349 349 347 347 348 347 348 347 345 342 338 335 335 334 336 336 340 344 344 345 343 339 335 327 322 324
358 359 357 353 357 356 358 353 349 347 352 352 353 348 344 339 336 335 335 336 336 338 342 345 345 341 339 340 342 331 324 323
1 358 357 7 1 5 360 358 354 355 355 355 353 351 351 350 347 343 341 337 342 346 350 345 346 343 339 345 350 335 322 317
0 3 356 358 359 359 359 359 1 2 3 1 3 3 357 359 357 350 345 350 353 347 349 339 333 333 341 351 341 328 305 283
360 357 357 356 358 1 2 2 8 13 9 14 16 8 36 22 20 46 69 95 122 245 314 313 315 284 271 270 269 275 267 265